User: anonymous
Location: Churchill
(58.7670°N, 94.1670°W)
Time: 21:02:54
(UTC-05:00)
Language:

Cosmos 1315 Rocket - Orbit

View from above orbital plane
View from above orbital plane
View from above satellite
View from above satellite

Ground track
Ground track

The orbit data is extracted from the following two-line orbital elements,

1 12904U 81103B   14252.72400340  .00001812  00000-0  13444-3 0  5754
2 12904 081.1813 349.2718 0030677 147.5032 212.8569 15.02708918340741
Epoch (UTC): 09 September 2014 17:22:33
Eccentricity: 0.0030677
inclination: 81.1813°
perigee height: 537 km
apogee height: 580 km
right ascension of ascending node: 349.2718°
argument of perigee: 147.5032°
revolutions per day: 15.02708918
mean anomaly at epoch: 212.8569°
orbit number at epoch: 34074

The dashed part of the orbit path shows where the satellite is in the earth's shadow,  

DLR